Regional Weather Roundup
Issued by NWS

Home | Current Version | Previous Version | Graphics & Text | Print | Product List | Glossary On
Versions: 1 2 3 4 5 6 7 8 9 10 11 12 13 14 15 16 17 18 19 20 21 22 23 24 25 26 27 28 29 30 31 32 33 34 35 36 37 38 39 40 41 42 43 44 45 46 47 48 49 50
000
ASUS43 KLOT 131708
RWRIL

ILLINOIS REGIONAL WEATHER ROUNDUP
NATIONAL WEATHER SERVICE CHICAGO/ROMEOVILLE IL
1100 AM CST SAT FEB 13 2016

NOTE: "FAIR" INDICATES FEW OR NO CLOUDS BELOW 12,000 FEET WITH NO
SIGNIFICANT WEATHER AND/OR OBSTRUCTIONS TO VISIBILITY.

* THESE STATIONS ARE NOT UNDER NWS QUALITY CONTROL. THEY ALSO MAY NOT
  REPORT WEATHER SUCH AS PRECIPITATION OR FOG.

ILZ001-002-007-009-015-016-024-131800-
NORTHWEST ILLINOIS

CITY           SKY/WX    TMP DP  RH WIND       PRES   REMARKS
MOLINE         SUNNY     13  -8  39 VRB7      30.65F WCI   3
STERLING*      SUNNY     12  -8  40 NW9       30.62S WCI   0
SAVANNA*       SUNNY      9  -8  45 NW6       30.65F WCI  -1
$$

ILZ003-004-008-010-011-017-018-131800-
NORTH CENTRAL ILLINOIS

CITY           SKY/WX    TMP DP  RH WIND       PRES   REMARKS
ROCKFORD       MOSUNNY   10  -8  44 NW10      30.63S WCI  -4
FREEPORT*      SUNNY      7  -9  48 W10       30.64R WCI  -7
ROCHELLE*      SUNNY     11  -5  48 W9        30.62R WCI  -1
DE KALB*       SUNNY      9  -6  50 NW6       30.59S WCI  -1
$$

ILZ005-006-012>014-019>023-131800-
NORTHEAST ILLINOIS

CITY           SKY/WX    TMP DP  RH WIND       PRES   REMARKS
CHICAGO-OHARE  MOSUNNY   10  -8  44 NW10      30.59S WCI  -4
CHICAGO-MIDWAY MOSUNNY   12  -9  38 NW9       30.60R WCI   0
AURORA         SUNNY     12  -5  46 NW10      30.61S WCI  -1
LANSING*       SUNNY     13  -9  35 NW12      30.59F WCI   0
JOLIET*        SUNNY     14  -5  43 NW8       30.62S WCI   2
WAUKEGAN       SUNNY      9  -6  50 NW9       30.57S WCI  -4
DUPAGE AIRPORT SUNNY     10  -7  46 W13       30.59S WCI  -5
KANKAKEE*      SUNNY     13  -7  41 W10G16    30.62S WCI   0
WHEELING       SUNNY     11  -6  46 NW12      30.60S WCI  -3
MORRIS*        SUNNY     12  -6  43 NW9G16    30.58F WCI   0
ROMEOVILLE*    SUNNY     11  -8  41 NW7       30.60S WCI   1
NORTHERLY ISL    N/A     12  -9  38 NW9         N/A  WCI   0
$$

LMZ740>746-131800-
SOUTHERN LAKE MICHIGAN

STATION/POSITION SKY/WX   TEMP    WIND        PRES    VSBY  WAVE
                          AIR SEA DIR/SP/G                  HT/PER
                          (F)     (DEG/KT/KT) (MB)    (MI)  (FT/S)
HARRISON CRIB               9     320/ 13/ 16   N/A
BURNHAM HARBOR             13     290/  9/ 13   N/A
CALUMET HARBOR              9     290/  6/ 13 1035.1R
BURNS HARBOR               10     310/ 12/ 17 1035.6R
MICHIGAN CITY              11     270/ 16/ 19   N/A
$$

ILZ025>027-034>036-040-047-049-050-058-095>099-131800-
WEST-CENTRAL ILLINOIS

CITY           SKY/WX    TMP DP  RH WIND       PRES   REMARKS
QUINCY         SUNNY     12  -3  51 CALM      30.65F
GALESBURG*     SUNNY     13  -5  44 W6        30.64S WCI   4
MACOMB*        SUNNY     13  -3  48 W3        30.68S
JACKSONVILLE*  SUNNY     17   0  48 SW3       30.65F
PITTSFIELD*    SUNNY     13  -2  50 CALM      30.66S
$$

ILZ028>032-037-038-041>044-048-051>054-059>061-131800-
CENTRAL ILLINOIS

CITY           SKY/WX    TMP DP  RH WIND       PRES   REMARKS
PONTIAC        SUNNY     13  -5  45 NW9       30.63F WCI   1
BLOOMINGTON    SUNNY     14  -5  42 N5        30.62S WCI   6
DECATUR        SUNNY     14  -4  44 NW8       30.63F WCI   3
PEORIA         SUNNY     15  -8  35 N6        30.65S WCI   6
LACON*         SUNNY     13  -6  41 NW8       30.64S WCI   2
LINCOLN*       SUNNY     15  -4  42 NW3       30.65F
SPRINGFIELD    SUNNY     16  -3  43 N5        30.65F WCI   9
TAYLORVILLE    SUNNY     14  -2  48 CALM      30.65S
$$

ILZ033-039-045-046-055>057-062-063-131800-
EAST-CENTRAL ILLINOIS

CITY           SKY/WX    TMP DP  RH WIND       PRES   REMARKS
CHAMPAIGN      SUNNY     13  -4  46 NW8       30.62S WCI   2
RANTOUL*       SUNNY     14  -2  49 NW10      30.62R WCI   2
MATTOON        SUNNY     13  -2  51 N9        30.63S WCI   1
PARIS*         SUNNY     14  -4  44 N9        30.63S WCI   2
$$

ILZ079-100>102-131800-
SOUTHWEST ILLINOIS

CITY           SKY/WX    TMP DP  RH WIND       PRES   REMARKS
ALTON          SUNNY     16   0  48 NW9       30.66F WCI   4
BELLEVILLE     SUNNY     20   0  43 VRB6      30.64F WCI  12
CAHOKIA*       SUNNY     19  -3  38 NE6       30.67F WCI  11
SPARTA*        SUNNY     18   3  52 N6        30.65F WCI  10
$$

ILZ064>066-069>071-074>076-080>082-084>086-088>090-092>094-131800-
SOUTH-CENTRAL ILLINOIS

CITY           SKY/WX    TMP DP  RH WIND       PRES   REMARKS
CARBONDALE     MOSUNNY   20   3  48 VRB7      30.65F WCI  11
CAIRO*         CLOUDY    21   7  55 N9        30.64S WCI  11
EFFINGHAM*     SUNNY     16   2  53 NW6       30.66S WCI   8
MARION         MOSUNNY   21   3  45 N8        30.65S WCI  12
MT. VERNON     SUNNY     18   1  49 NW3       30.65F
CENTRALIA*     SUNNY     18   4  55 N7        30.65S WCI   9
SALEM*         SUNNY     17   2  50 W3        30.66R
METROPOLIS*    CLOUDY    22   6  51 N12       30.63F WCI  10
$$

ILZ067-068-072-073-078-083-087-091-131800-
SOUTHEAST ILLINOIS

CITY           SKY/WX    TMP DP  RH WIND       PRES   REMARKS
LAWRENCEVILLE  SUNNY     17  -4  39 N12       30.65S WCI   4
FLORA*         SUNNY     19  -1  41 N6        30.66S WCI  11
FAIRFIELD*     SUNNY     18   2  49 NW7       30.64F WCI   9
HARRISBURG*    SUNNY     20   7  57 N5        30.65F WCI  13
ROBINSON*      SUNNY     15  -4  41 NW6       30.65F WCI   7
CARMI*         SUNNY     18   4  54 N7        30.64F WCI   9
$$

ABBREVIATIONS USED IN REMARKS
   TC - TEMPERATURE IN CELSIUS
  WCI - WIND CHILL INDEX
   HX - HEAT INDEX
  VSB - VISIBILITY
$$




USA.gov is the U.S. government's official web portal to all federal, state and local government web resources and services.